Location: Newark
(20.0000°S, 47.0000°E)
Time: 13:39:01
(UTC+00:00)

N. Korean satellite - Pass Details

Date: 21 August 2020
Orbit: 455 x 503 km, 97.2° (Epoch: 20 September)

Event Time Altitude Azimuth Distance (km) Brightness Sun altitude
Rises 02:02:42 0° 5° (N) 2,578 10.4 -16.2°
Reaches altitude 10° 02:04:47 10° 1° (N) 1,704 9.4 -15.8°
Maximum altitude 02:08:24 60° 280° (W) 583 6.6 -14.9°
Drops below altitude 10° 02:12:05 10° 200° (SSW) 1,723 9.1 -14.1°
Sets 02:14:12 0° 196° (SSW) 2,611 10.0 -13.6°
